Yaogan Weixing 9 fu xing yi

operational
NORAD ID: 36414 Int'l Des: 2010-009 Owner: ZZB Country: CN Constellation: yaogan
LEO

Über Yaogan Weixing 9 fu xing yi

Beschreibung wird geladen...

Live-Position

3D-Globus wird geladen...

Nächste Überflüge

Höhenverlauf

Altitude vs Time

uPlot chart will show altitude changes over time

Zweizeiliger Elementsatz

1 36414U 10009B 26061.32075206 .00000053 00000-0 10334-3 0 9990
2 36414 63.3656 274.3688 0529248 20.0675 342.0328 13.45687972785360
Epoch: 2. März 2026 • Age: 29 hours

Aktueller Status

Höhe 795.1 km
Geschwindigkeit 7.61 km/s
Subsatellitenpunkt 52.65°N, 71.14°E
Startdatum 5. März 2010
Alter 15.9 years
Typ military

Technische Details

Klassifizierung Payload
Masse 500.00 kg
Trockenmasse 500.00 kg
Gesamtmasse 500.00 kg
Länge 0.50 m
Durchmesser 0.50 m
Spannweite 1.00 m
Form Box + 2 Pan
Hersteller CAST
Bus-Typ JB-8
Phasenstatus In Orbit
Besitzer/Staat ZZB/CN

Große Konstellationen

Loading constellations...